This is the latest recevied weather packets stored in our database for station/object KF8LO-1. If no packets are shown the sender has not sent any weather packets the latest 10 day(s).
| Time | Temp. | Humidity | Pressure | Rain* | Wind** | Luminosity | Snow |
|---|---|---|---|---|---|---|---|
| 1777565597 | 7.22° C | 71% | 0 hPa | 0 mm | - | - | - |
| 1777565297 | 7.22° C | 69% | 0 hPa | 0 mm | - | - | - |
| 1777564997 | 6.67° C | 75% | 0 hPa | 0 mm | - | - | - |
| 1777564697 | 6.67° C | 74% | 0 hPa | 0 mm | - | - | - |
| 1777564397 | 6.67° C | 76% | 0 hPa | 0 mm | - | - | - |
| 1777564097 | 6.11° C | 78% | 0 hPa | 0 mm | - | - | - |
| 1777563797 | 6.11° C | 77% | 0 hPa | 0 mm | - | - | - |
| 1777563497 | 6.11° C | 77% | 0 hPa | 0 mm | - | - | - |
| 1777563197 | 6.11° C | 79% | 0 hPa | 0 mm | - | - | - |
| 1777562897 | 6.11° C | 79% | 0 hPa | 0 mm | - | - | - |
| 1777562597 | 6.11° C | 76% | 0 hPa | 0 mm | - | - | - |
| 1777562297 | 6.67° C | 74% | 0 hPa | 0 mm | - | - | - |
| 1777561997 | 6.67° C | 75% | 0 hPa | 0 mm | - | - | - |
| 1777561697 | 6.67° C | 75% | 0 hPa | 0 mm | - | - | - |
| 1777561397 | 6.11° C | 76% | 0 hPa | 0 mm | - | - | - |
| 1777561098 | 6.11° C | 76% | 0 hPa | 0 mm | - | - | - |
| 1777560797 | 6.11° C | 76% | 0 hPa | 0 mm | - | - | - |
| 1777560497 | 6.67° C | 77% | 0 hPa | 0 mm | - | - | - |
| 1777560198 | 6.11° C | 78% | 0 hPa | 0 mm | - | - | - |
| 1777559898 | 6.11° C | 80% | 0 hPa | 0 mm | - | - | - |
| 1777559598 | 6.11° C | 80% | 0 hPa | 0 mm | - | - | - |
| 1777559298 | 6.11° C | 83% | 0 hPa | 0 mm | - | - | - |
| 1777558998 | 5.56° C | 80% | 0 hPa | 0 mm | - | - | - |
| 1777558698 | 6.11° C | 83% | 0 hPa | 0 mm | - | - | - |
| 1777558398 | 6.11° C | 83% | 0 hPa | 0 mm | - | - | - |
* Rain latest hour (hover to see other rain measurements)
** Current wind speed in m/s (hover to see current wind gust speed)